DELTA 1 DEB, 10718

Orbit data source: Space-Track

DELTA 1 DEB, 10718 is space debris in SSO originally from a launch on Thu, 29 Jul 1976 UTC launched from the Air Force Western Test Range (AFWTR). Debris objects in space refer to the collection of defunct objects orbiting the Earth. Examples of debris include non-operational satellites, rocket bodies, and fragments generated from explosions, collisions, or faulty payload assembly.

Loading next visibility...
Identifier
10718, 1976-077AP
Orbit
SSO
Country
Flag of USUS
Related business
Manufacturer
Unknown
Mission
Spacecraft
Bus & Motor
Unknown
Mass
Unknown
Launch date (UTC)
1976-07-29 (49 years ago)
Launch vehicle
Unknown
Launch site
Air Force Western Test Range (AFWTR)
Object type
Payload
Rocket body
Debris
Shape & HBR
Unknown shape, 0.1 m
Radar Cross Section
Small (<0.1 m²)

Expand to show TLE details & history
Last TLE update: 13 hours ago

TLE from 13 hours ago
0 DELTA 1 DEB
1 10718U 76077AP  25289.04496668  .00000046  00000-0  63630-3 0  9994
2 10718 101.6402 320.5869 0053623 177.5272 210.6290 12.42844142230441
Epoch: 2025-10-16T01:04Z
TLE epoch observation values (Epoch: 2025-10-16T01:04:45.121Z)
Latitude
27.26197°
Longitude
-86.47523°
Altitude
1,533.996 km
Speed
7.085 km/s
True Right ascension
20h 58m 05s
True Declination
27° 08' 09"
Sunlit
Object was in daylight at epoch
Visualization orbit readout
Latitude
Unknown
Longitude
Unknown
Altitude
Unknown
Speed
Unknown
Apparent Right ascension
Unknown
Apparent Declination
Unknown
Sunlit
N/A
Visualization observer readout
Local Sidereal Time
09:12:08
Azimuth
Unknown
Elevation
Unknown
Doppler factor
Unknown
Orbital elements
Apogee altitude
1,534.322 km
Perigee altitude
1,449.917 km
Semi-major axis
7,870.256 km
Eccentricity
0.00536
Inclination
101.6402°
RAAN
320.5869°
Arg. of periapsis
177.5272°
True anomaly
210.31774°
Mean anomaly
210.629°
Eccentric anomaly
210.47319°
Mean motion
3.10856 °/min
Orbital period
115.81 mins
BSTAR
0.0006363
Loading maneuver chart data...
Computing Atmospheric mass density...
Loading historical data...
Loading historical data...
Loading historical data...
Loading historical data...
Loading historical data...
Loading historical data...
Loading historical data...

Documentation

Showing up to 5 results
|